This is the latest recevied weather packets stored in our database for station/object N2WH. If no packets are shown the sender has not sent any weather packets the latest 10 day(s).
| Time | Temp. | Humidity | Pressure | Rain* | Wind** | Luminosity | Snow |
|---|---|---|---|---|---|---|---|
| 1777450991 | 10° C | 75% | 1017.4 hPa | 0 mm | - | 0 W/m² | - |
| 1777450688 | 10° C | 74% | 1017.3 hPa | 0 mm | - | 0 W/m² | - |
| 1777450383 | 10.56° C | 75% | 1017.3 hPa | 0 mm | - | 0 W/m² | - |
| 1777450080 | 10.56° C | 75% | 1017.2 hPa | 0 mm | - | 0 W/m² | - |
| 1777449775 | 10.56° C | 75% | 1017.4 hPa | 0 mm | - | 0 W/m² | - |
| 1777449472 | 10.56° C | 75% | 1017.5 hPa | 0 mm | - | 0 W/m² | - |
| 1777449168 | 10.56° C | 75% | 1017.5 hPa | 0 mm | - | 0 W/m² | - |
| 1777448863 | 10.56° C | 75% | 1017.4 hPa | 0 mm | - | 0 W/m² | - |
| 1777448561 | 10.56° C | 74% | 1017.4 hPa | 0 mm | - | 0 W/m² | - |
| 1777448257 | 10.56° C | 74% | 1017.4 hPa | 0 mm | - | 0 W/m² | - |
| 1777447954 | 10.56° C | 73% | 1017.5 hPa | 0 mm | - | 0 W/m² | - |
| 1777447649 | 10.56° C | 73% | 1017.6 hPa | 0 mm | - | 0 W/m² | - |
| 1777447346 | 10.56° C | 73% | 1017.7 hPa | 0 mm | - | 0 W/m² | - |
| 1777447044 | 10.56° C | 73% | 1017.5 hPa | 0 mm | - | 0 W/m² | - |
| 1777446741 | 10.56° C | 73% | 1017.7 hPa | 0 mm | - | 0 W/m² | - |
| 1777446437 | 10.56° C | 73% | 1017.5 hPa | 0 mm | - | 0 W/m² | - |
| 1777446134 | 10.56° C | 72% | 1017.9 hPa | 0 mm | - | 0 W/m² | - |
| 1777445830 | 10.56° C | 74% | 1017.7 hPa | 0 mm | - | 0 W/m² | - |
| 1777445526 | 10.56° C | 74% | 1017.7 hPa | 0 mm | - | 0 W/m² | - |
| 1777445223 | 11.11° C | 73% | 1017.6 hPa | 0 mm | - | 0 W/m² | - |
| 1777444918 | 11.11° C | 73% | 1017.9 hPa | 0 mm | - | 0 W/m² | - |
| 1777444614 | 11.11° C | 73% | 1017.9 hPa | 0 mm | - | 0 W/m² | - |
| 1777444312 | 11.11° C | 71% | 1018 hPa | 0 mm | - | 0 W/m² | - |
| 1777444008 | 11.11° C | 69% | 1018 hPa | 0 mm | - | 0 W/m² | - |
| 1777443704 | 11.11° C | 66% | 1018.2 hPa | 0 mm | - | 0 W/m² | - |
* Rain latest hour (hover to see other rain measurements)
** Current wind speed in m/s (hover to see current wind gust speed)